When you browse on this site, cookies collect data to enhance your experience and personalize the content and advertising you see.
Visit our Privacy Policy to learn more. By continuing to use the site, you agree to this use of cookies and data.
  • In Hungary
  • List of Countries
  • For 7 days
  • Water Temperature
  • Weather Map
  • News
  • Weather Widgets
  • user-avatar
    Login

    Hourly Weather Doratynka

    Today, 12 December, Thursday

    Time Temperature Precipitation Wind Pressure Humidity
    00:00 -3°C° 0 mm 4 mps 748 mmHg 80%
    01:00 -3°C° 0 mm 4 mps 748 mmHg 79%
    02:00 -2°C° 0 mm 4 mps 748 mmHg 80%
    03:00 -2°C° 0.1 mm 4 mps 747 mmHg 86%
    04:00 -1°C° 0.1 mm 5 mps 746 mmHg 91%
    05:00 -1°C° 0.1 mm 5 mps 745 mmHg 96%
    06:00 0°C° 0.3 mm 5 mps 745 mmHg 96%
    07:00 0°C° 0.3 mm 4 mps 745 mmHg 95%
    08:00 -1°C° 0 mm 4 mps 744 mmHg 94%
    09:00 -1°C° 0.1 mm 5 mps 744 mmHg 87%
    10:00 0°C° 0.1 mm 5 mps 744 mmHg 80%
    11:00 -1°C° 0.1 mm 6 mps 743 mmHg 73%
    12:00 -1°C° 0 mm 6 mps 744 mmHg 74%
    13:00 +1°C° 0 mm 6 mps 744 mmHg 75%
    14:00 +1°C° 0 mm 5 mps 744 mmHg 77%
    15:00 +1°C° 0 mm 5 mps 743 mmHg 79%
    16:00 +1°C° 0 mm 5 mps 743 mmHg 81%
    17:00 +1°C° 0 mm 5 mps 743 mmHg 84%
    18:00 +1°C° 0 mm 5 mps 743 mmHg 86%
    19:00 0°C° 0 mm 5 mps 743 mmHg 88%
    20:00 0°C° 0 mm 5 mps 743 mmHg 91%
    21:00 0°C° 0 mm 4 mps 743 mmHg 91%
    22:00 -1°C° 0 mm 4 mps 743 mmHg 92%
    23:00 -1°C° 0 mm 4 mps 742 mmHg 93%

    Tomorrow, 13 December, Friday

    Time Temperature Precipitation Wind Pressure Humidity
    00:00 -1°C° 0 mm 4 mps 742 mmHg 93%
    01:00 -1°C° 0 mm 4 mps 742 mmHg 93%
    02:00 -1°C° 0 mm 4 mps 741 mmHg 93%
    03:00 -1°C° 0 mm 4 mps 741 mmHg 92%
    04:00 -1°C° 0 mm 4 mps 740 mmHg 92%
    05:00 0°C° 0 mm 4 mps 739 mmHg 91%
    06:00 0°C° 0 mm 4 mps 739 mmHg 91%
    07:00 0°C° 0 mm 5 mps 738 mmHg 91%
    08:00 0°C° 0 mm 5 mps 738 mmHg 91%
    09:00 +1°C° 0 mm 5 mps 738 mmHg 88%
    10:00 +1°C° 0 mm 6 mps 737 mmHg 85%
    11:00 +2°C° 0 mm 6 mps 736 mmHg 82%
    12:00 +2°C° 0 mm 6 mps 736 mmHg 81%
    13:00 +2°C° 0 mm 6 mps 735 mmHg 80%
    14:00 +3°C° 0 mm 6 mps 735 mmHg 79%
    15:00 +3°C° 0 mm 7 mps 735 mmHg 79%
    16:00 +3°C° 0 mm 7 mps 734 mmHg 79%
    17:00 +2°C° 0 mm 7 mps 734 mmHg 79%
    18:00 +3°C° 0.1 mm 7 mps 734 mmHg 79%
    19:00 +3°C° 0.1 mm 7 mps 735 mmHg 79%
    20:00 +3°C° 0.1 mm 7 mps 735 mmHg 80%
    21:00 +3°C° 0 mm 7 mps 735 mmHg 80%
    22:00 +3°C° 0 mm 7 mps 735 mmHg 81%
    23:00 +2°C° 0 mm 7 mps 735 mmHg 81%

    Day after tomorrow, 14 December, Saturday

    Time Temperature Precipitation Wind Pressure Humidity
    00:00 +2°C° 0 mm 7 mps 735 mmHg 82%
    01:00 +2°C° 0 mm 6 mps 735 mmHg 83%
    02:00 +2°C° 0 mm 6 mps 735 mmHg 85%
    03:00 +2°C° 0 mm 6 mps 735 mmHg 85%
    04:00 +2°C° 0 mm 6 mps 735 mmHg 85%
    05:00 +2°C° 0 mm 6 mps 736 mmHg 85%
    06:00 +2°C° 0 mm 6 mps 736 mmHg 85%
    07:00 +2°C° 0 mm 6 mps 736 mmHg 86%
    08:00 +2°C° 0 mm 6 mps 736 mmHg 86%
    09:00 +3°C° 0 mm 6 mps 737 mmHg 85%
    10:00 +3°C° 0 mm 6 mps 737 mmHg 85%
    11:00 +3°C° 0 mm 6 mps 737 mmHg 84%
    12:00 +3°C° 0 mm 6 mps 737 mmHg 81%
    13:00 +3°C° 0 mm 6 mps 737 mmHg 78%
    14:00 +3°C° 0 mm 5 mps 737 mmHg 74%
    15:00 +3°C° 0 mm 5 mps 738 mmHg 74%
    16:00 +3°C° 0 mm 5 mps 738 mmHg 75%
    17:00 +3°C° 0 mm 4 mps 738 mmHg 75%
    18:00 +3°C° 0 mm 4 mps 738 mmHg 77%
    19:00 +3°C° 0 mm 4 mps 739 mmHg 79%
    20:00 +3°C° 0 mm 4 mps 739 mmHg 81%
    21:00 +1°C° 0 mm 4 mps 739 mmHg 82%
    22:00 +1°C° 0 mm 4 mps 739 mmHg 84%
    23:00 +1°C° 0 mm 4 mps 739 mmHg 86%

    15 December, Sunday

    Time Temperature Precipitation Wind Pressure Humidity
    00:00 +1°C° 0 mm 5 mps 739 mmHg 88%
    01:00 +1°C° 0 mm 5 mps 739 mmHg 91%
    02:00 +1°C° 0 mm 5 mps 740 mmHg 94%
    03:00 +1°C° 0.2 mm 6 mps 740 mmHg 92%
    04:00 +1°C° 0.2 mm 6 mps 741 mmHg 90%
    05:00 +2°C° 0.2 mm 6 mps 741 mmHg 88%
    06:00 +1°C° 0 mm 6 mps 742 mmHg 86%
    07:00 +1°C° 0 mm 5 mps 742 mmHg 85%
    08:00 0°C° 0 mm 5 mps 743 mmHg 83%
    09:00 0°C° 0 mm 5 mps 744 mmHg 80%
    10:00 +1°C° 0 mm 5 mps 744 mmHg 76%
    11:00 +1°C° 0 mm 5 mps 745 mmHg 73%
    12:00 +1°C° 0 mm 5 mps 744 mmHg 71%
    13:00 +2°C° 0 mm 5 mps 744 mmHg 70%
    14:00 +3°C° 0 mm 5 mps 744 mmHg 69%
    15:00 +3°C° 0.2 mm 6 mps 744 mmHg 71%
    16:00 +3°C° 0.2 mm 6 mps 744 mmHg 73%
    17:00 +3°C° 0.2 mm 7 mps 744 mmHg 75%
    18:00 +3°C° 0.5 mm 7 mps 744 mmHg 76%
    19:00 +4°C° 0.5 mm 7 mps 744 mmHg 76%
    20:00 +4°C° 0.5 mm 7 mps 744 mmHg 77%
    21:00 +4°C° 0 mm 7 mps 745 mmHg 77%
    22:00 +4°C° 0 mm 7 mps 745 mmHg 78%
    23:00 +5°C° 0 mm 6 mps 746 mmHg 79%

    16 December, Monday

    Time Temperature Precipitation Wind Pressure Humidity
    00:00 +5°C° 0 mm 5 mps 747 mmHg 80%
    01:00 +3°C° 0 mm 5 mps 747 mmHg 81%
    02:00 +4°C° 0 mm 4 mps 748 mmHg 82%
    03:00 +3°C° 0 mm 4 mps 748 mmHg 85%
    04:00 +2°C° 0 mm 3 mps 749 mmHg 87%
    05:00 +3°C° 0 mm 2 mps 749 mmHg 90%
    06:00 +3°C° 0 mm 2 mps 750 mmHg 91%
    07:00 +3°C° 0 mm 2 mps 750 mmHg 91%
    08:00 +3°C° 0 mm 2 mps 750 mmHg 92%
    09:00 +3°C° 0 mm 3 mps 750 mmHg 90%
    10:00 +3°C° 0 mm 3 mps 750 mmHg 87%
    11:00 +4°C° 0 mm 4 mps 750 mmHg 85%
    12:00 +4°C° 0 mm 4 mps 750 mmHg 81%
    13:00 +5°C° 0 mm 4 mps 749 mmHg 78%
    14:00 +5°C° 0 mm 4 mps 749 mmHg 74%
    15:00 +5°C° 0 mm 4 mps 749 mmHg 77%
    16:00 +4°C° 0 mm 3 mps 749 mmHg 79%
    17:00 +4°C° 0 mm 3 mps 749 mmHg 82%
    18:00 +3°C° 0 mm 3 mps 749 mmHg 83%
    19:00 +4°C° 0 mm 2 mps 749 mmHg 84%
    20:00 +4°C° 0 mm 2 mps 749 mmHg 85%
    21:00 +4°C° 0 mm 2 mps 749 mmHg 86%
    22:00 +4°C° 0 mm 2 mps 749 mmHg 88%
    23:00 +3°C° 0 mm 2 mps 749 mmHg 89%

    17 December, Tuesday

    Time Temperature Precipitation Wind Pressure Humidity
    00:00 +3°C° 0 mm 2 mps 749 mmHg 89%
    01:00 +3°C° 0 mm 2 mps 749 mmHg 89%
    02:00 +3°C° 0 mm 2 mps 748 mmHg 90%
    03:00 +3°C° 0 mm 2 mps 748 mmHg 91%
    04:00 +3°C° 0 mm 2 mps 748 mmHg 92%
    05:00 +3°C° 0 mm 2 mps 748 mmHg 93%
    06:00 +2°C° 0 mm 2 mps 748 mmHg 92%
    07:00 +2°C° 0 mm 2 mps 748 mmHg 92%
    08:00 +2°C° 0 mm 2 mps 748 mmHg 92%
    09:00 +2°C° 0 mm 2 mps 748 mmHg 90%
    10:00 +3°C° 0 mm 2 mps 748 mmHg 88%
    11:00 +2°C° 0 mm 3 mps 748 mmHg 87%
    12:00 +3°C° 0 mm 3 mps 748 mmHg 85%
    13:00 +5°C° 0 mm 2 mps 748 mmHg 83%
    14:00 +5°C° 0 mm 2 mps 747 mmHg 81%
    15:00 +5°C° 0 mm 2 mps 747 mmHg 84%
    16:00 +4°C° 0 mm 2 mps 747 mmHg 86%
    17:00 +4°C° 0 mm 2 mps 748 mmHg 88%
    18:00 +4°C° 0 mm 2 mps 747 mmHg 89%
    19:00 +4°C° 0 mm 2 mps 747 mmHg 89%
    20:00 +4°C° 0 mm 2 mps 747 mmHg 90%
    21:00 +4°C° 0 mm 2 mps 747 mmHg 91%
    22:00 +4°C° 0 mm 2 mps 747 mmHg 91%
    23:00 +4°C° 0 mm 2 mps 747 mmHg 92%
    Show more